OneWeb SL0230

operational
NORAD ID: 48769 Int'l Des: 2021-045 Owner: ONEWEBN Country: UK Constellation: oneweb
LEOCIRCULARPOLARONEWEB_TYPE

关于 OneWeb SL0230

正在加载描述...

实时位置

正在加载3D地球...

即将过境

高度历史

Altitude vs Time

uPlot chart will show altitude changes over time

两行轨道根数

1 48769U 21045C 26037.11796688 .00000070 00000-0 15220-3 0 9990
2 48769 87.8979 285.3782 0001630 76.0727 284.0585 13.15548906227430
Epoch: Feb 6, 2026 • Age: 8 hours

当前状态

高度 1208.6 km
速度 7.25 km/s
星下点 49.83°N, 4.54°W
发射日期 May 28, 2021
运行时间 4.6 years
类型 internet

技术详情

分类 Payload
质量 148.00 kg
干质量 140.00 kg
总质量 148.00 kg
长度 1.30 m
直径 1.00 m
跨度 5.00 m
形状 Trapezoid+2 pan
制造商 ONEWUS
平台类型 ARROW
阶段状态 In Orbit
所有者/国家 ONEWEBN/UK

大型星座

Loading constellations...